Nampa, ID

7:30 AM MST on February 19, 2017 (GMT -0700)
Nampa

Weather History for KMAN - March, 2014

Change the Weather History Date:

Friday, March 28, 2014

  Actual Average (KBOI) Record (KBOI)
Temperature  
Mean Temperature 44 °F -  
Max Temperature 55 °F 55 °F 76 °F (1943)
Min Temperature 33 °F 32 °F 17 °F (1944)
Degree Days  
Heating Degree Days 21    
Moisture  
Dew Point 38 °F    
Average Humidity 78    
Maximum Humidity 100    
Minimum Humidity 54    
Precipitation  
Precipitation 0.00 in - - ()
Sea Level Pressure  
Sea Level Pressure 30.00 in    
Wind  
Wind Speed 8 mph (SE)    
Max Wind Speed 20 mph    
Max Gust Speed 25 mph    
Visibility 10 miles    
Events      
Averages and records for this station are not official NWS values.
T = Trace of Precipitation, MM = Missing Value Source: NWS Daily Summary

Daily Weather History Graph

Daily Weather History Graph

Search for Another Location

Airport or City:

Trip Planner

Search our weather history database for the weather conditions in past years. The results will help you decide how hot, cold, wet, or windy it might be!

Date:

Astronomy

Mar. 28, 2014 Rise Set
Actual Time 7:34 AM MDT 8:08 PM MDT
Civil Twilight 7:05 AM MDT 8:36 PM MDT
Nautical Twilight 6:31 AM MDT 9:11 PM MDT
Astronomical Twilight 5:56 AM MDT 9:46 PM MDT
Moon 6:12 AM MDT (3/28) 6:06 PM MDT (3/28)
Length of Visible Light 13h 31m
Length of Day
12h 33m
Waning Crescent, 6% of the Moon is Illuminated
Mar 28
Waning Crescent
Mar 30
New
Apr 7
First Quarter
Apr 15
Full
Apr 22
Last Quarter

Hourly Weather History & Observations

Time (MDT) Temp. Windchill Dew Point Humidity Pressure Visibility Wind Dir Wind Speed Gust Speed Precip Events Conditions
12:15 AM 37.4 °F 33.8 °F 37.4 °F 100% 29.98 in 10.0 mi ESE 4.6 mph - N/A   Overcast
12:35 AM 37.4 °F 34.9 °F 37.4 °F 100% 29.99 in 10.0 mi ESE 3.5 mph - N/A   Mostly Cloudy
12:55 AM 37.4 °F 34.9 °F 37.4 °F 100% 29.99 in 10.0 mi ESE 3.5 mph - N/A   Partly Cloudy
1:15 AM 35.6 °F 30.7 °F 35.6 °F 100% 29.99 in 10.0 mi ESE 5.8 mph - N/A   Clear
1:35 AM 35.6 °F 32.8 °F 35.6 °F 100% 30.00 in 10.0 mi SE 3.5 mph - N/A   Clear
1:55 AM 33.8 °F 28.6 °F 33.8 °F 100% 30.01 in 10.0 mi SE 5.8 mph - N/A   Clear
2:15 AM 35.6 °F 29.9 °F 35.6 °F 100% 30.01 in 10.0 mi ESE 6.9 mph - N/A   Partly Cloudy
2:35 AM 33.8 °F 27.7 °F 33.8 °F 100% 30.01 in 10.0 mi SSE 6.9 mph - N/A   Partly Cloudy
2:55 AM 33.8 °F 27.7 °F 33.8 °F 100% 30.02 in 10.0 mi ESE 6.9 mph - N/A   Mostly Cloudy
3:15 AM 33.8 °F 28.6 °F 33.8 °F 100% 30.02 in 10.0 mi SE 5.8 mph - N/A   Overcast
3:35 AM 35.6 °F 29.9 °F 35.6 °F 100% 30.02 in 10.0 mi SE 6.9 mph - N/A   Overcast
3:55 AM 35.6 °F 29.9 °F 35.6 °F 100% 30.02 in 10.0 mi SE 6.9 mph - N/A   Overcast
4:15 AM 35.6 °F 29.2 °F 35.6 °F 100% 30.02 in 10.0 mi SE 8.1 mph - N/A   Mostly Cloudy
4:35 AM 35.6 °F 30.7 °F 35.6 °F 100% 30.02 in 10.0 mi SE 5.8 mph - N/A   Overcast
4:55 AM 35.6 °F 29.9 °F 35.6 °F 100% 30.02 in 10.0 mi SE 6.9 mph - N/A   Overcast
5:15 AM 35.6 °F 31.7 °F 35.6 °F 100% 30.03 in 10.0 mi SE 4.6 mph - N/A   Overcast
5:35 AM 35.6 °F 29.9 °F 35.6 °F 100% 30.03 in 10.0 mi SE 6.9 mph - N/A   Overcast
5:55 AM 35.6 °F 31.7 °F 35.6 °F 100% 30.03 in 10.0 mi SE 4.6 mph - N/A   Overcast
6:15 AM 35.6 °F 30.7 °F 35.6 °F 100% 30.03 in 10.0 mi SE 5.8 mph - N/A   Overcast
6:35 AM 35.6 °F 29.9 °F 35.6 °F 100% 30.02 in 10.0 mi ESE 6.9 mph - N/A   Overcast
6:55 AM 35.6 °F 32.8 °F 35.6 °F 100% 30.03 in 10.0 mi SSE 3.5 mph - N/A   Overcast
7:15 AM 33.8 °F 28.6 °F 33.8 °F 100% 30.04 in 10.0 mi South 5.8 mph - N/A   Overcast
7:35 AM 33.8 °F 28.6 °F 33.8 °F 100% 30.04 in 10.0 mi SSE 5.8 mph - N/A   Overcast
7:55 AM 35.6 °F 31.7 °F 35.6 °F 100% 30.05 in 10.0 mi SSE 4.6 mph - N/A   Mostly Cloudy
8:15 AM 35.6 °F 31.7 °F 35.6 °F 100% 30.05 in 10.0 mi SSE 4.6 mph - N/A   Mostly Cloudy
8:35 AM 37.4 °F 32.1 °F 37.4 °F 100% 30.06 in 10.0 mi SE 6.9 mph - N/A   Mostly Cloudy
8:55 AM 39.2 °F 34.2 °F 39.2 °F 100% 30.06 in 10.0 mi SSE 6.9 mph - N/A   Partly Cloudy
9:15 AM 39.2 °F 33.0 °F 39.2 °F 100% 30.06 in 10.0 mi SSE 9.2 mph - N/A   Clear
9:35 AM 41.0 °F 36.4 °F 39.2 °F 93% 30.07 in 10.0 mi SE 6.9 mph - N/A   Scattered Clouds
9:55 AM 41.0 °F 35.8 °F 39.2 °F 93% 30.07 in 10.0 mi SE 8.1 mph - N/A   Scattered Clouds
10:15 AM 44.6 °F 39.7 °F 41.0 °F 87% 30.07 in 10.0 mi SE 9.2 mph - N/A   Mostly Cloudy
10:35 AM 44.6 °F 38.4 °F 39.2 °F 81% 30.07 in 10.0 mi SE 12.7 mph - N/A   Scattered Clouds
10:55 AM 46.4 °F 41.1 °F 39.2 °F 76% 30.08 in 10.0 mi ESE 11.5 mph 18.4 mph N/A   Scattered Clouds
11:15 AM 46.4 °F 41.1 °F 41.0 °F 81% 30.08 in 10.0 mi SE 11.5 mph 16.1 mph N/A   Partly Cloudy
11:35 AM 48.2 °F - 41.0 °F 76% 30.08 in 10.0 mi SE 13.8 mph - N/A   Partly Cloudy
11:55 AM 50.0 °F - 39.2 °F 66% 30.07 in 10.0 mi SE 13.8 mph 18.4 mph N/A   Partly Cloudy
12:15 PM 50.0 °F - 39.2 °F 66% 30.07 in 10.0 mi SE 11.5 mph 20.7 mph N/A   Scattered Clouds
12:35 PM 51.8 °F - 39.2 °F 62% 30.06 in 10.0 mi SE 13.8 mph 25.3 mph N/A   Scattered Clouds
12:55 PM 51.8 °F - 39.2 °F 62% 30.05 in 10.0 mi SE 12.7 mph 20.7 mph N/A   Scattered Clouds
1:15 PM 51.8 °F - 39.2 °F 62% 30.05 in 10.0 mi SE 12.7 mph 19.6 mph N/A   Scattered Clouds
1:35 PM 51.8 °F - 39.2 °F 62% 30.05 in 10.0 mi ESE 12.7 mph 18.4 mph N/A   Mostly Cloudy
1:55 PM 50.0 °F - 41.0 °F 71% 30.04 in 9.0 mi SE 12.7 mph 17.3 mph N/A   Mostly Cloudy
2:15 PM 53.6 °F - 39.2 °F 58% 30.03 in 10.0 mi SSE 8.1 mph 16.1 mph N/A   Overcast
2:35 PM 53.6 °F - 41.0 °F 62% 30.02 in 10.0 mi SSE 9.2 mph - N/A   Overcast
2:55 PM 55.4 °F - 41.0 °F 58% 30.01 in 10.0 mi SE 8.1 mph - N/A   Overcast
3:15 PM 55.4 °F - 41.0 °F 58% 30.00 in 10.0 mi SE 11.5 mph - N/A   Scattered Clouds
3:35 PM 55.4 °F - 39.2 °F 54% 29.99 in 10.0 mi SE 11.5 mph - N/A   Partly Cloudy
3:55 PM 55.4 °F - 39.2 °F 54% 29.98 in 10.0 mi South 9.2 mph - N/A   Clear
4:15 PM 55.4 °F - 39.2 °F 54% 29.98 in 10.0 mi SSE 8.1 mph - N/A   Partly Cloudy
4:35 PM 55.4 °F - 39.2 °F 54% 29.97 in 10.0 mi SSE 6.9 mph - N/A   Clear
4:55 PM 55.4 °F - 39.2 °F 54% 29.96 in 10.0 mi SSE 9.2 mph - N/A   Partly Cloudy
5:15 PM 55.4 °F - 39.2 °F 54% 29.95 in 10.0 mi SSE 8.1 mph - N/A   Partly Cloudy
5:35 PM 55.4 °F - 39.2 °F 54% 29.95 in 10.0 mi ESE 11.5 mph 17.3 mph N/A   Mostly Cloudy
5:55 PM 55.4 °F - 41.0 °F 58% 29.94 in 10.0 mi SE 8.1 mph - N/A   Mostly Cloudy
6:15 PM 55.4 °F - 39.2 °F 54% 29.94 in 10.0 mi SE 10.4 mph 17.3 mph N/A   Mostly Cloudy
6:35 PM 55.4 °F - 41.0 °F 58% 29.94 in 10.0 mi SE 8.1 mph - N/A   Mostly Cloudy
6:55 PM 55.4 °F - 41.0 °F 58% 29.94 in 10.0 mi SE 10.4 mph - N/A   Overcast
7:15 PM 53.6 °F - 41.0 °F 62% 29.93 in 10.0 mi SE 11.5 mph - N/A   Mostly Cloudy
7:35 PM 53.6 °F - 39.2 °F 58% 29.93 in 10.0 mi SE 12.7 mph 19.6 mph N/A   Mostly Cloudy
7:55 PM 53.6 °F - 39.2 °F 58% 29.92 in 10.0 mi ESE 12.7 mph 18.4 mph N/A   Scattered Clouds
8:15 PM 51.8 °F - 39.2 °F 62% 29.92 in 10.0 mi ESE 11.5 mph 24.2 mph N/A   Scattered Clouds
8:35 PM 51.8 °F - 39.2 °F 62% 29.91 in 10.0 mi SE 13.8 mph 19.6 mph N/A   Partly Cloudy
8:55 PM 51.8 °F - 37.4 °F 58% 29.90 in 10.0 mi ESE 12.7 mph 20.7 mph N/A   Scattered Clouds
9:15 PM 53.6 °F - 37.4 °F 54% 29.90 in 10.0 mi SE 13.8 mph 23.0 mph N/A   Mostly Cloudy
9:35 PM 51.8 °F - 37.4 °F 58% 29.91 in 10.0 mi SE 13.8 mph 18.4 mph N/A   Overcast
9:55 PM 51.8 °F - 39.2 °F 62% 29.91 in 10.0 mi SE 15.0 mph 19.6 mph N/A   Overcast
10:15 PM 51.8 °F - 37.4 °F 58% 29.90 in 10.0 mi ESE 19.6 mph 25.3 mph N/A   Overcast
10:35 PM 53.6 °F - 37.4 °F 54% 29.91 in 10.0 mi SSE 11.5 mph 19.6 mph N/A   Mostly Cloudy
10:55 PM 50.0 °F - 39.2 °F 66% 29.91 in 10.0 mi South 10.4 mph - N/A   Overcast
11:15 PM 50.0 °F - 39.2 °F 66% 29.89 in 10.0 mi SE 10.4 mph 20.7 mph N/A   Overcast
11:35 PM 50.0 °F - 37.4 °F 62% 29.89 in 10.0 mi SSE 10.4 mph 18.4 mph N/A   Mostly Cloudy
11:55 PM 50.0 °F - 37.4 °F 62% 29.87 in 10.0 mi SE 13.8 mph 19.6 mph N/A   Mostly Cloudy